This is the latest recevied weather packets stored in our database for station/object KB4JHU-15. If no packets are shown the sender has not sent any weather packets the latest 10 day(s).
| Time | Temp. | Humidity | Pressure | Rain* | Wind** | Luminosity | Snow |
|---|---|---|---|---|---|---|---|
| 1788445583 | 31.67° C | 58% | - | 0 mm | - | - | - |
| 1788443782 | 29.44° C | 68% | - | 0 mm | - | - | - |
| 1788441981 | 27.78° C | 75% | - | 0 mm | - | - | - |
| 1788440180 | 25° C | 88% | - | 0 mm | - | - | - |
| 1788438379 | 22.78° C | 92% | - | 0 mm | - | - | - |
| 1788436578 | 22.78° C | 92% | - | 0 mm | - | - | - |
| 1788434777 | 22.78° C | 92% | - | 0 mm | - | - | - |
| 1788432976 | 22.78° C | 92% | - | 0 mm | - | - | - |
| 1788431175 | 22.78° C | 92% | - | 0 mm | - | - | - |
| 1788429374 | 22.78° C | 91% | - | 0 mm | - | - | - |
| 1788427573 | 23.33° C | 90% | - | 0 mm | - | - | - |
| 1788425772 | 23.89° C | 90% | - | 0 mm | - | - | - |
| 1788423971 | 23.89° C | 90% | - | 0 mm | - | - | - |
| 1788422170 | 23.89° C | 89% | - | 0 mm | - | - | - |
| 1788420369 | 23.89° C | 88% | - | 0 mm | - | - | - |
| 1788418568 | 24.44° C | 87% | - | 0 mm | - | - | - |
| 1788416767 | 24.44° C | 87% | - | 0 mm | - | - | - |
| 1788414966 | 25° C | 87% | - | 0 mm | - | - | - |
| 1788413165 | 25° C | 86% | - | 0 mm | - | - | - |
| 1788411364 | 25.56° C | 83% | - | 0 mm | - | - | - |
| 1788409563 | 26.11° C | 82% | - | 0 mm | - | - | - |
| 1788407762 | 26.11° C | 80% | - | 0 mm | - | - | - |
| 1788405961 | 26.67° C | 78% | - | 0 mm | - | - | - |
| 1788404160 | 27.22° C | 77% | - | 0 mm | - | - | - |
| 1788402359 | 27.22° C | 74% | - | 0 mm | - | - | - |
* Rain latest hour (hover to see other rain measurements)
** Current wind speed in m/s (hover to see current wind gust speed)